{"data":{"norad_id":57088,"epoch":"2026-09-19T21:44:01.959936Z","epoch_age_seconds":172331,"freshness":"FRESH","line1":"1 57088U 23088AS  26262.90557824 -.00000253  00000+0  34037-6 0  9990","line2":"2 57088  43.0002  79.2510 0002250 247.3122 112.7492 15.27574689180204","mean_motion":15.27574689,"eccentricity":0.000225,"inclination_deg":43.0002,"raan_deg":79.251,"arg_perigee_deg":247.3122,"mean_anomaly_deg":112.7492,"bstar":3.4037e-7,"rev_number":18020,"period_min":94.26707645586,"perigee_km":481.52122868055,"apogee_km":484.60876958015,"semimajor_km":6861.2019991304,"source":"CELESTRAK","updated_at":"2026-09-21T09:00:33.556306Z"}}